Home > Weather > Galway > Past weeks

Flag for Ireland Weather for the Past 2 Weeks in Galway, Ireland

Now
45 °F

Partly cloudy.


Feels Like: 34 °F
Forecast: 43 / 47 °F
Wind: 38 mph from Southwest

Location: Shannon Airport

Current Time: Feb 8, 2016 at 12:44:44 AM

Latest Report: Feb 8, 2016 at 12:00 AM


Visibility: N/A

Pressure: 28.74 "Hg

Humidity: 81%

Dew point: 39 °F

Location of GalwayLocation

Historic Weather in Galway — Graph

°F

Galway Temperature Yesterday

Maximum temperature yesterday: 50 °F (at 3:30 PM)
Minimum temperature yesterday: 39 °F (at 12:00 AM)
Average temperature yesterday: 43 °F

High & Low Weather Summary for the Past Weeks

 TemperatureHumidityPressure
High57 °F (Jan 24, 2:00 AM)100% (Jan 25, 9:30 AM)30.39 "Hg (Jan 25, 9:30 AM)
Low37 °F (Jan 30, 8:00 AM)54% (Feb 3, 11:30 AM)28.74 "Hg (Feb 7, 11:00 PM)
Average47 °F83%29.74 "Hg
* Reported Jan 23 11:00 PM — Feb 7 11:00 PM, Galway, Weather by CustomWeather, © 2016

Note: Actual official high and low records may vary slightly from our data, if they occured in-between our weather recording intervals... More about our weather records

Advertising

Galway Weather History for the Previous 24 Hours

 ConditionsComfort  
Time TempWeatherWind HumidityBarometerVisibility
11:00 PM
Sun, Feb 7
43 °FPassing clouds.32 mph81%28.74 "HgN/A
10:30 PM43 °FSprinkles. Passing clouds.28 mph87%28.77 "HgN/A
10:00 PM43 °FPartly cloudy.26 mph81%28.80 "HgN/A
9:30 PM43 °FPartly cloudy.32 mph87%28.80 "HgN/A
9:00 PM41 °FThunderstorms. Passing clouds.38 mph87%28.80 "Hg2 mi
8:30 PM43 °FPassing clouds.18 mph87%28.80 "HgN/A
8:00 PM41 °FSprinkles. Partly cloudy.22 mph93%28.82 "Hg5 mi
7:30 PM43 °FSprinkles. Partly cloudy.33 mph81%28.82 "Hg5 mi
7:00 PM43 °FSprinkles. Partly cloudy.36 mph81%28.82 "Hg5 mi
6:30 PM45 °FSprinkles. Partly cloudy.22 mph81%28.82 "Hg5 mi
6:00 PM45 °FPartly cloudy.29 mph81%28.85 "HgN/A
5:30 PM48 °FSprinkles. Partly sunny.31 mph71%28.82 "Hg5 mi
5:00 PM48 °FSprinkles. Broken clouds.28 mph87%28.82 "Hg2 mi
4:30 PM50 °FSprinkles. Broken clouds.31 mph82%28.82 "Hg4 mi
4:00 PM50 °FBroken clouds.25 mph88%28.82 "HgN/A
3:30 PM50 °FBroken clouds.21 mph88%28.82 "HgN/A
3:00 PM46 °FSprinkles. Broken clouds.20 mph93%28.85 "Hg3 mi
2:30 PM45 °FSprinkles. Broken clouds.20 mph87%28.88 "Hg5 mi
2:00 PM43 °FPartly sunny.17 mph93%28.94 "HgN/A
1:30 PM43 °FLight rain. Partly sunny.16 mph87%29.00 "HgN/A
1:00 PM41 °FLight rain. Broken clouds.15 mph93%29.03 "Hg5 mi
12:30 PM41 °FBroken clouds.17 mph93%29.09 "HgN/A
12:00 PM43 °FLight rain. Broken clouds.16 mph87%29.12 "Hg5 mi
11:30 AM43 °FSprinkles. Partly sunny.20 mph81%29.15 "Hg5 mi
11:00 AM43 °FPartly sunny.18 mph81%29.12 "HgN/A
10:30 AM43 °FPartly sunny.21 mph76%29.12 "HgN/A
10:00 AM43 °FBroken clouds.23 mph81%29.15 "HgN/A
9:30 AM43 °FBroken clouds.20 mph81%29.15 "HgN/A
9:00 AM43 °FPartly sunny.18 mph76%29.15 "HgN/A
8:30 AM43 °FPassing clouds.21 mph76%29.15 "HgN/A
8:00 AM43 °FSprinkles. Passing clouds.21 mph76%29.15 "HgN/A
7:30 AM43 °FPassing clouds.21 mph71%29.12 "HgN/A
7:00 AM43 °FPassing clouds.23 mph71%29.12 "HgN/A
6:30 AM43 °FPassing clouds.21 mph76%29.09 "HgN/A
6:00 AM43 °FSprinkles. Partly cloudy.32 mph81%29.12 "Hg4 mi
5:30 AM43 °FPassing clouds.18 mph81%29.09 "HgN/A
5:00 AM43 °FPassing clouds.16 mph81%29.09 "HgN/A
4:30 AM43 °FPassing clouds.18 mph81%29.06 "HgN/A
4:00 AM43 °FSprinkles. Partly cloudy.21 mph81%29.06 "Hg6 mi
3:30 AM41 °FPassing clouds.15 mph93%29.03 "HgN/A
3:00 AM41 °FSprinkles. Passing clouds.23 mph87%29.03 "Hg6 mi
2:30 AM41 °FPassing clouds.17 mph87%29.00 "HgN/A
2:00 AM41 °FPassing clouds.13 mph81%29.00 "HgN/A
1:30 AM39 °FSprinkles. Passing clouds.5 mph93%29.00 "HgN/A
1:00 AM39 °FPassing clouds.12 mph87%29.00 "HgN/A
12:30 AM39 °FSprinkles. Passing clouds.18 mph87%29.00 "HgN/A
12:00 AM39 °FSprinkles. Passing clouds.14 mph81%28.97 "HgN/A
Weather by CustomWeather, © 2016

See weather overviewHow to use our weather pages